THOR ABLESTAR R/B, 953

Orbit data source: Space-Track

THOR ABLESTAR R/B, 953 is space debris in LEO originally from a launch on Sun, 13 Dec 1964 UTC launched from the Air Force Western Test Range (AFWTR). Debris objects in space refer to the collection of defunct objects orbiting the Earth. Examples of debris include non-operational satellites, rocket bodies, and fragments generated from explosions, collisions, or faulty payload assembly.

Loading next visibility...
Identifier
953, 1964-083A
Orbit
LEO
Country
Flag of USUS
Related business
Manufacturer
Aerojet
Mission
Spacecraft
Bus & Motor
ABLESTAR, Unknown motor
Mass
~600 kg wet, 600 kg dry
Launch date (UTC)
1964-12-13 (61 years ago)
Launch vehicle
Unknown
Launch site
Air Force Western Test Range (AFWTR)
Object type
Payload
Rocket body
Debris
Shape & HBR
Unknown
Radar Cross Section
Large (>1 m²)

Expand to show TLE details & history
Last TLE update: 9 hours ago

TLE from 9 hours ago
0 THOR ABLESTAR R/B
1   953U 64083A   25312.65991676  .00000076  00000-0  90524-4 0  9997
2   953  90.0308 192.3451 0031915   5.6261  21.7524 13.58817939 18636
Epoch: 2025-11-08T15:50Z
TLE epoch observation values (Epoch: 2025-11-08T15:50:16.808Z)
Latitude
27.55227°
Longitude
-93.32727°
Altitude
1,021.45 km
Speed
7.354 km/s
True Right ascension
12h 49m 18s
True Declination
27° 24' 59"
Sunlit
Object was in daylight at epoch
Visualization orbit readout
Latitude
Unknown
Longitude
Unknown
Altitude
Unknown
Speed
Unknown
Apparent Right ascension
Unknown
Apparent Declination
Unknown
Sunlit
N/A
Visualization observer readout
Local Sidereal Time
20:40:59
Azimuth
Unknown
Elevation
Unknown
Doppler factor
Unknown
Orbital elements
Apogee altitude
1,060.693 km
Perigee altitude
1,013.362 km
Semi-major axis
7,415.165 km
Eccentricity
0.00319
Inclination
90.0308°
RAAN
192.3451°
Arg. of periapsis
5.6261°
True anomaly
21.88844°
Mean anomaly
21.7524°
Eccentric anomaly
21.82037°
Mean motion
3.39908 °/min
Orbital period
105.91 mins
BSTAR
0.000090524
Loading maneuver chart data...
Computing Atmospheric mass density...

Documentation

Showing up to 5 results
|